GFSMA_sfc_dewp_138.txt.gz
Dewpoint
67 66 65 66 65 62 60 60 58 58 58 57 57 56 55 55 57 58 59 64 65 66 64 64 63 63 62 62 61 60 60 60 59 58 58 58 58 58 58 58 58 58 58
67 66 66 65 64 62 58 58 55 57 57 57 57 57 57 56 56 57 58 61 65 66 65 65 64 64 64 63 63 62 62 61 61 61 60 59 59 59 59 59 58 58 58
67 66 66 65 63 63 58 56 55 56 57 56 56 57 57 57 57 57 58 58 61 64 65 66 65 65 65 65 65 65 65 64 63 63 62 62 61 61 61 61 60 60 59
67 66 65 64 63 62 60 56 55 55 56 56 56 56 57 58 58 57 58 59 60 59 63 65 66 66 66 65 64 64 64 65 66 65 64 64 63 63 63 63 62 62 61
67 66 65 64 63 62 60 56 53 53 55 56 56 56 57 57 58 58 58 59 60 60 60 63 63 64 64 64 65 64 64 63 63 64 65 64 64 62 61 61 61 62 62
67 66 65 64 63 62 59 56 52 53 54 55 54 55 57 58 58 59 58 58 59 60 61 61 61 60 61 62 63 64 63 63 63 62 62 61 60 61 61 61 60 60 60
66 66 66 65 64 62 60 56 52 52 54 55 55 55 57 57 58 58 59 58 58 59 59 60 60 60 60 62 64 64 64 64 64 63 62 61 62 61 61 61 61 61 60
67 66 66 65 64 62 61 58 53 52 53 56 54 54 53 55 56 56 56 56 56 57 58 59 60 61 61 61 61 63 63 64 64 63 62 61 61 61 61 61 61 60 59
66 66 65 65 65 64 62 60 56 55 53 55 56 54 51 51 53 56 56 57 58 58 59 59 60 60 60 60 60 60 60 61 62 62 61 62 61 61 61 61 61 61 58
66 67 66 65 64 64 63 60 56 55 55 55 58 57 57 56 54 54 57 57 58 58 59 59 59 60 60 61 60 58 58 59 61 61 61 60 60 60 61 60 62 61 59
65 66 65 65 64 64 63 61 58 56 56 56 58 58 58 58 57 56 55 57 59 59 59 59 59 59 59 60 60 58 57 58 60 60 61 61 60 60 61 61 61 61 59
63 65 65 65 64 63 62 61 59 59 57 56 56 58 59 58 57 57 56 57 56 57 58 58 58 58 58 58 57 56 56 57 59 59 60 60 59 60 60 59 60 61 58
60 62 64 64 64 63 62 62 60 60 58 57 57 58 59 59 58 57 56 55 56 57 57 57 57 57 57 57 57 53 54 56 57 58 59 59 57 57 59 59 61 59 57
54 59 62 63 64 63 62 61 60 59 59 58 58 58 59 59 59 58 57 56 54 55 56 56 56 56 57 56 56 53 55 55 56 56 57 57 56 55 56 57 57 56 55
52 54 60 63 63 63 63 62 61 60 59 59 58 59 59 58 59 59 58 58 56 54 53 55 56 56 56 56 55 54 54 53 54 54 55 55 55 54 54 54 54 53 53
52 54 56 60 62 63 62 62 61 60 60 60 59 57 58 58 59 60 60 59 58 57 54 56 57 56 57 54 54 53 53 51 53 54 54 54 54 54 53 52 52 52 52
51 53 55 57 59 62 62 62 61 61 60 60 59 58 56 56 58 59 61 60 58 58 56 57 56 55 54 53 52 52 52 50 50 53 53 53 53 53 53 52 52 51 51
51 51 53 54 55 56 61 61 61 61 60 59 58 57 56 57 58 59 59 59 59 58 57 56 54 52 52 52 52 51 49 49 49 50 51 51 52 52 52 52 52 51 50
49 50 51 52 54 57 58 60 60 60 60 59 58 57 58 58 58 59 59 58 58 58 57 57 55 52 51 50 50 50 50 47 47 47 48 49 50 50 50 51 52 51 50
50 49 51 53 56 56 58 60 60 60 60 59 59 59 58 58 58 58 58 58 57 57 56 55 54 48 48 46 48 47 44 45 44 43 44 45 46 48 49 50 51 50 49
52 53 53 55 57 58 59 59 60 60 60 59 59 58 58 56 52 55 57 57 57 56 55 53 53 47 46 42 44 46 48 46 44 43 42 42 42 44 45 48 48 49 48
55 56 57 57 58 56 54 54 57 58 57 56 55 55 56 52 53 53 53 52 55 56 55 53 53 50 50 49 49 47 47 42 41 42 41 41 42 43 43 46 47 49 48
47 46 47 48 46 48 50 52 53 56 55 56 54 54 53 52 51 53 52 51 51 51 52 52 53 53 52 52 48 46 45 44 44 39 41 39 41 42 43 43 47 48 47
46 45 45 45 45 46 47 47 47 47 45 45 45 46 46 47 47 48 49 47 44 44 45 46 46 44 44 44 45 43 43 41 39 39 41 38 40 40 41 42 45 47 47
42 43 43 43 43 43 45 46 46 45 44 43 44 44 45 45 46 47 45 44 43 42 44 45 45 45 45 44 42 40 37 36 35 36 38 38 39 40 39 39 40 44 46
40 40 41 42 44 43 44 44 44 44 43 43 43 43 44 44 45 45 44 43 42 41 41 41 43 43 44 44 44 43 39 37 35 34 37 37 37 40 39 38 39 38 42

GFSMA_sfc_dewp_141.txt.gz
Dewpoint
67 68 67 65 65 64 60 59 58 57 57 55 53 53 53 54 55 57 61 64 66 66 64 63 63 62 62 62 62 61 61 61 60 60 59 59 59 59 59 59 59 59 59
67 68 66 65 65 63 60 58 57 56 57 55 54 54 53 54 54 56 58 62 65 66 65 65 64 64 64 64 63 63 62 62 62 62 61 61 60 60 60 60 60 60 60
68 66 66 66 64 62 59 58 57 54 56 55 54 54 55 54 54 54 56 58 62 64 65 66 65 65 65 65 65 65 65 65 64 64 63 63 63 62 62 62 62 62 61
68 67 66 65 64 62 61 57 55 53 55 56 55 55 55 55 54 54 57 57 60 59 64 66 66 66 66 66 66 65 65 65 66 67 65 65 64 64 64 63 63 63 63
67 67 66 66 64 63 61 58 55 53 54 55 55 55 56 56 57 55 56 58 59 60 60 63 64 64 65 65 65 65 65 65 65 64 65 65 65 64 62 62 61 61 61
67 67 67 66 65 62 62 61 57 54 53 54 52 53 56 57 58 59 58 58 58 60 61 61 62 61 62 63 63 64 65 64 64 62 62 62 61 61 61 61 61 61 61
67 67 67 66 65 63 61 60 57 54 53 53 54 55 56 57 57 58 59 58 59 59 59 60 60 61 61 62 63 64 65 64 64 64 63 62 62 62 62 61 61 61 61
67 66 66 66 64 63 62 60 57 53 52 54 53 55 53 54 56 57 58 58 58 58 59 59 59 60 61 61 62 64 64 65 65 64 63 63 62 62 62 62 62 61 60
67 67 66 66 65 64 64 62 59 55 52 53 55 54 52 51 55 57 57 57 56 57 58 59 59 60 60 61 61 62 61 63 64 64 63 62 62 62 62 62 62 62 61
65 67 66 66 65 65 64 64 61 57 55 53 56 55 57 56 52 53 57 57 56 56 58 59 59 60 60 61 60 59 59 60 62 63 63 62 61 61 61 61 61 61 61
61 66 66 66 65 65 65 64 62 59 55 55 55 56 56 58 59 57 55 57 58 58 59 59 59 59 60 61 61 60 58 59 61 63 62 62 61 61 61 60 61 62 62
58 63 66 65 65 65 64 64 62 60 57 55 56 57 56 56 56 56 55 57 57 57 59 59 59 59 60 60 59 57 57 58 60 61 62 62 61 60 61 61 60 59 62
56 60 63 64 64 64 64 64 63 62 59 57 55 56 57 57 57 56 56 54 54 57 58 58 59 59 58 59 59 55 55 57 58 60 61 61 60 59 59 60 59 59 61
50 56 59 62 63 64 63 62 62 61 61 60 58 56 57 57 58 57 57 55 54 55 56 57 58 58 58 58 57 54 56 55 57 58 59 60 60 58 57 58 58 59 59
46 49 55 57 60 63 63 62 62 60 61 59 58 58 58 59 60 59 58 57 55 52 52 56 56 57 58 58 56 55 55 54 56 57 57 57 57 57 55 54 56 56 56
48 47 48 54 57 61 63 62 61 61 60 60 59 59 58 58 58 59 59 59 58 56 54 54 57 58 58 57 56 56 55 53 54 55 55 55 55 55 55 54 54 54 54
47 48 48 49 53 57 61 62 62 61 60 60 59 59 58 58 58 58 59 58 58 58 56 56 58 57 56 56 55 54 54 54 53 54 54 54 54 54 54 54 54 53 53
50 49 49 49 52 54 58 60 61 61 60 60 60 59 59 58 57 57 57 58 59 58 58 56 57 54 55 55 54 53 53 52 52 52 53 53 53 54 53 53 53 53 53
50 49 49 49 52 54 54 58 60 60 60 60 60 60 59 59 58 57 57 57 58 58 58 57 56 53 53 51 52 52 52 51 50 49 53 52 53 52 53 53 52 52 52
51 49 49 49 51 51 53 54 56 59 59 60 60 59 59 58 58 57 57 58 58 58 57 56 55 52 51 47 50 49 46 49 48 48 49 49 50 51 51 51 51 50 50
50 50 49 50 51 53 53 55 56 58 60 59 59 59 59 57 53 56 57 57 56 55 55 54 53 50 49 43 45 48 49 49 47 48 46 46 46 47 47 50 49 49 50
51 53 53 50 52 54 52 52 56 58 59 59 57 56 56 52 53 53 52 52 55 56 55 54 53 52 51 51 50 49 48 47 43 46 45 45 45 44 44 45 47 49 49
48 48 49 48 47 49 50 50 52 57 54 53 53 54 53 49 49 51 51 51 50 50 51 53 53 53 53 53 51 49 48 48 48 46 45 45 43 43 44 45 47 48 48
44 45 45 46 45 46 48 48 47 47 45 45 45 46 46 46 47 47 47 47 45 45 44 45 47 49 48 47 48 47 47 44 38 39 42 37 40 40 43 45 47 48 48
43 44 44 44 43 44 45 46 45 44 44 44 44 44 45 45 46 46 44 43 43 43 43 43 45 45 46 46 46 42 38 37 35 35 38 38 37 38 40 41 44 47 48
42 42 42 42 43 42 44 44 44 43 42 42 42 42 43 43 44 45 44 43 41 42 42 41 41 40 41 42 45 43 40 37 36 34 37 37 35 36 34 38 40 42 44

GFSMA_sfc_dewp_144.txt.gz
Dewpoint
68 68 68 68 66 65 62 62 62 61 59 57 54 54 53 54 55 60 62 63 65 66 64 64 63 63 63 62 62 62 62 61 61 61 61 60 60 60 60 61 61 60 60
67 68 67 66 65 64 62 60 59 58 58 57 54 53 52 53 54 56 62 63 64 66 66 65 64 64 64 64 64 64 63 63 63 63 63 62 62 62 62 62 62 62 61
68 67 66 65 64 64 62 58 58 56 57 56 54 54 54 53 54 55 60 62 63 64 66 66 65 65 65 65 65 66 66 66 66 66 65 64 64 63 63 63 63 63 63
68 67 67 65 65 64 62 58 57 55 55 56 55 55 55 55 54 53 55 59 62 62 64 66 67 66 66 67 66 66 65 66 67 66 65 66 65 65 64 63 62 62 62
67 67 67 66 65 64 62 59 56 54 54 55 55 55 55 55 56 55 55 56 58 60 62 63 64 65 66 66 66 65 65 65 66 64 64 65 66 65 62 61 61 61 61
67 67 67 66 66 64 62 60 56 54 54 54 54 53 55 56 57 57 57 57 58 59 59 61 62 62 63 64 64 64 65 65 65 64 62 62 62 61 62 61 61 61 62
66 66 67 66 66 64 62 60 58 54 54 54 53 54 55 56 56 57 59 58 58 58 60 60 61 61 61 63 64 64 64 64 65 64 64 63 62 62 62 62 61 62 61
66 67 66 66 66 65 62 61 59 56 53 54 53 54 52 53 56 57 58 58 58 58 58 59 59 60 60 60 60 62 64 65 65 65 64 64 63 63 62 62 62 62 62
66 66 66 66 66 65 64 61 60 56 53 53 53 54 52 51 53 56 56 57 57 57 57 58 59 59 59 60 61 61 62 64 65 65 64 64 63 62 62 62 62 62 62
60 66 66 66 66 66 64 63 61 58 53 52 53 54 55 54 51 53 56 56 56 55 56 58 58 59 59 60 60 60 60 61 63 64 64 63 64 63 62 61 61 61 61
57 61 65 65 66 66 65 64 63 61 55 52 52 53 54 55 57 55 53 55 56 56 57 58 59 59 59 60 60 60 59 61 63 63 64 63 63 63 62 61 61 62 61
51 59 64 65 65 65 65 64 64 63 59 55 55 54 54 53 56 56 54 54 55 57 58 59 59 59 59 60 59 58 58 60 62 63 63 63 63 62 62 61 61 61 60
49 52 58 62 64 63 65 64 64 64 62 57 56 55 56 55 56 56 56 54 55 56 57 58 59 59 59 59 59 56 56 59 60 61 63 63 62 62 60 61 60 60 60
46 52 56 60 62 62 63 64 64 63 62 60 59 57 58 58 58 58 57 56 54 55 56 56 58 59 59 59 58 55 57 57 58 59 61 61 61 61 60 59 58 58 60
45 47 52 57 59 60 61 61 62 62 62 60 59 59 59 59 60 60 60 59 56 52 54 54 56 58 58 58 57 57 56 55 57 57 58 59 59 58 58 57 56 56 57
47 46 46 48 56 57 58 60 60 60 61 61 60 60 59 58 60 61 60 60 59 57 54 52 55 57 57 57 57 56 55 53 55 56 57 56 56 56 56 56 55 55 55
46 47 47 47 48 53 57 57 59 60 61 60 60 60 59 59 58 59 60 60 59 59 56 56 56 57 56 56 55 55 54 53 54 55 56 56 55 55 55 55 55 55 54
47 47 47 47 47 48 54 56 57 58 59 59 60 59 59 58 58 58 58 58 58 58 57 56 56 54 55 55 55 53 53 54 54 53 55 55 54 54 54 54 54 54 53
48 48 49 49 48 48 50 54 55 56 60 60 60 60 59 59 58 58 58 58 57 57 58 57 56 55 53 52 52 52 52 53 53 51 53 54 54 54 54 54 53 53 52
51 51 50 50 50 50 52 54 56 57 57 59 60 60 59 59 59 58 58 57 57 56 56 57 57 56 51 48 50 49 48 51 51 51 50 52 53 53 53 53 52 51 51
51 51 50 49 50 50 50 52 53 54 56 57 58 57 58 57 54 56 58 57 57 57 57 55 52 51 48 45 46 48 50 51 49 51 49 49 50 51 51 52 51 50 50
48 50 50 50 51 53 50 50 52 54 55 56 56 56 55 52 53 52 53 53 55 55 54 53 52 51 52 51 51 50 49 47 47 48 48 48 49 48 49 50 50 50 50
46 46 47 47 47 48 49 51 52 54 52 51 51 53 49 47 48 50 50 49 48 47 47 47 48 50 49 49 48 48 49 49 49 47 47 45 47 45 47 47 48 48 49
44 44 44 44 45 46 47 47 48 47 46 45 46 46 46 45 46 46 46 45 44 44 44 44 44 44 44 45 45 45 46 45 40 40 43 38 40 41 44 46 47 47 47
43 43 43 43 43 44 46 47 45 44 43 42 43 44 44 44 45 46 44 43 43 42 43 43 43 43 43 44 45 42 38 36 37 37 38 39 37 37 38 41 44 47 48
41 41 41 42 42 42 44 45 45 44 42 42 42 42 43 43 43 44 43 41 40 41 39 39 38 39 40 40 41 39 37 35 35 35 36 36 35 36 35 37 39 43 46

GFSMA_sfc_dewp_150.txt.gz
Dewpoint
67 67 67 67 66 66 66 66 64 63 62 60 60 58 55 54 55 60 61 63 66 67 65 65 64 64 64 63 63 63 62 62 62 62 62 62 62 61 61 61 62 61 61
67 67 67 67 66 65 65 66 65 64 62 61 60 58 57 54 55 60 61 62 64 66 66 65 65 65 64 64 64 64 64 64 64 64 64 64 64 63 63 63 63 63 63
67 67 67 67 67 66 64 63 64 64 62 60 59 58 57 54 54 60 61 61 62 63 66 66 66 66 65 65 65 65 66 66 66 66 66 65 65 65 64 64 63 61 61
68 67 67 67 67 67 65 62 62 61 61 59 58 56 54 54 53 57 60 61 62 62 64 66 67 66 66 66 66 66 67 67 67 66 65 65 65 65 65 65 62 61 60
67 67 67 67 66 66 65 63 61 60 59 59 58 57 55 54 53 53 58 60 61 62 62 63 64 65 66 67 66 66 65 66 67 67 65 65 64 65 65 64 62 61 61
67 67 67 67 66 65 65 64 62 59 58 57 56 56 55 55 55 55 53 56 60 61 61 61 61 62 63 65 66 66 66 65 66 67 66 64 63 64 63 62 62 62 62
61 66 66 67 67 65 65 64 63 60 58 57 55 54 54 54 55 55 56 54 55 59 60 60 60 61 61 63 64 65 65 65 65 65 66 65 64 63 63 63 63 62 62
50 61 65 65 67 66 65 64 63 60 58 57 55 53 52 53 54 55 56 56 56 56 57 59 60 60 60 60 60 63 65 65 65 65 65 66 65 65 64 64 63 63 63
49 50 59 65 64 66 65 65 64 62 59 57 56 55 52 51 52 54 55 56 56 57 57 58 58 59 60 60 60 60 61 64 64 65 65 65 66 66 65 64 63 63 63
49 50 51 58 64 64 65 65 65 64 62 59 57 55 56 54 51 49 54 55 56 56 57 58 58 58 59 60 59 58 59 61 63 64 65 65 65 65 66 65 64 64 62
48 51 52 53 58 63 63 63 65 64 63 61 58 58 56 55 54 52 50 53 55 56 57 57 57 58 58 59 59 59 59 61 63 64 65 65 65 65 64 65 64 64 62
44 48 53 55 59 62 62 62 63 64 63 62 61 59 57 55 54 55 53 52 53 55 56 57 57 57 58 58 58 57 58 60 63 64 65 65 64 64 64 64 64 64 63
43 44 48 54 57 60 62 62 61 61 62 62 61 59 58 57 56 55 54 54 54 55 55 56 57 57 57 58 58 56 57 59 61 63 64 64 64 65 65 64 63 63 63
42 43 45 50 55 58 60 61 61 61 60 61 61 60 58 58 58 57 55 55 53 55 56 56 58 58 59 59 58 56 58 57 59 61 63 64 63 63 63 64 63 63 61
43 44 45 48 50 53 57 58 59 59 60 60 60 60 58 58 59 59 59 58 55 53 54 55 57 59 60 60 59 60 59 57 58 59 59 60 60 60 61 61 62 61 61
44 44 44 46 50 53 55 56 57 57 58 58 59 59 60 59 59 59 59 58 58 57 54 56 57 58 59 59 59 60 59 55 57 58 58 58 58 58 59 59 59 60 60
44 45 45 46 46 47 50 52 54 55 56 57 57 58 58 59 59 59 59 59 59 59 56 57 57 57 57 58 58 59 58 58 58 56 57 58 57 57 57 57 57 58 59
45 45 45 46 46 47 47 48 49 53 54 54 55 56 57 58 58 58 58 58 58 59 58 56 57 57 57 57 57 57 57 57 57 56 56 56 57 56 56 56 56 56 56
45 45 46 46 46 46 46 47 48 49 51 53 54 55 55 56 57 58 58 58 58 58 59 58 57 58 58 55 54 54 55 55 54 53 55 55 56 56 56 56 55 55 54
46 46 46 47 48 49 49 49 48 49 50 51 53 54 55 55 56 57 58 58 58 58 58 57 57 57 56 52 52 52 52 51 53 52 53 54 54 54 55 55 54 53 52
49 50 50 50 49 49 50 49 50 50 51 51 52 53 54 54 52 55 57 57 58 57 56 56 55 54 52 48 49 50 50 50 50 50 50 51 51 51 52 53 52 51 51
46 47 47 47 46 48 47 47 48 49 49 50 50 51 52 51 52 53 51 49 50 55 55 55 55 53 51 49 48 48 48 46 46 48 48 48 48 48 50 50 51 51 51
45 45 45 45 45 46 47 48 49 49 50 50 51 49 48 48 50 49 48 47 46 46 46 48 47 45 45 44 44 43 44 44 45 46 45 44 46 46 48 49 49 50 50
43 43 43 44 44 45 46 47 47 46 45 45 45 45 45 45 47 46 44 43 43 43 43 43 43 43 43 43 43 43 42 41 41 42 43 37 42 42 42 43 46 47 48
41 41 41 42 42 44 45 45 44 43 43 43 43 44 44 44 45 45 43 41 41 41 42 42 42 42 42 41 40 40 36 35 35 37 38 38 38 37 36 37 39 42 43
39 39 39 40 41 42 44 44 43 41 41 41 41 42 43 42 43 42 41 41 39 39 39 38 37 38 38 39 39 37 36 33 33 34 36 35 34 35 35 35 35 38 38

GFSMA_sfc_dewp_153.txt.gz
Dewpoint
67 68 67 67 67 66 67 67 65 64 62 61 59 58 56 55 56 57 60 62 65 67 66 65 65 64 64 63 63 63 63 63 62 62 62 62 62 62 62 62 62 63 62
67 66 67 67 67 66 66 66 66 64 63 61 59 59 58 56 53 56 60 61 63 66 67 66 65 65 65 64 64 64 64 64 64 64 64 64 64 64 64 64 64 64 63
68 67 66 67 66 66 65 66 65 64 63 61 60 59 59 58 55 55 59 60 61 63 66 66 65 65 66 65 65 64 65 66 66 66 66 66 66 66 65 65 64 63 61
67 67 67 67 67 67 66 64 64 64 63 61 60 59 58 57 55 54 59 60 61 61 63 66 67 66 66 66 66 65 65 67 67 66 66 66 65 65 65 65 65 62 61
54 64 67 67 67 67 66 65 64 63 62 61 61 60 58 56 55 54 56 60 60 61 61 62 64 65 66 67 66 65 65 66 66 67 66 66 65 64 65 65 64 62 62
50 58 63 66 67 67 66 65 64 63 61 61 60 61 59 57 55 54 53 57 60 60 61 61 61 62 63 65 66 65 66 66 67 67 66 66 66 64 65 65 63 63 62
47 53 60 63 65 66 66 65 64 62 61 60 59 57 56 57 55 55 55 53 56 59 60 60 60 60 61 63 65 65 65 65 65 66 66 66 66 64 63 63 63 63 63
47 46 51 58 62 65 66 65 65 63 62 61 59 56 54 54 54 55 55 55 54 54 57 59 60 60 60 60 60 63 65 65 65 65 65 66 66 66 65 64 64 64 63
47 49 48 52 59 63 63 65 65 64 62 61 60 57 53 52 52 55 54 55 55 56 55 56 58 59 60 60 60 60 61 63 64 65 65 65 65 66 66 65 65 63 63
46 48 50 49 51 57 61 63 64 64 63 61 58 60 59 55 52 50 53 55 55 55 56 57 57 58 59 59 59 58 59 61 63 65 65 65 65 65 65 65 65 64 63
45 47 50 50 50 53 56 62 62 62 64 62 60 59 58 58 56 54 51 51 55 56 57 56 57 57 58 59 59 59 59 61 63 64 65 65 64 65 66 65 65 65 65
43 45 48 50 52 53 55 59 62 62 62 62 62 61 58 56 56 55 54 55 53 54 56 57 57 57 58 58 58 57 58 60 62 64 65 65 65 65 65 66 65 66 66
43 43 45 47 50 53 57 60 60 61 61 60 60 60 60 59 58 57 56 55 54 55 55 56 57 57 57 58 58 56 56 59 61 62 64 64 65 65 65 65 65 65 64
44 43 44 45 47 52 55 59 60 60 59 60 59 60 60 60 59 58 57 56 54 55 55 55 57 57 58 58 58 55 58 57 59 61 62 63 63 63 63 64 64 64 64
44 43 44 45 46 48 52 55 58 58 58 59 59 59 59 59 59 59 58 58 56 54 53 55 56 58 59 59 58 59 60 58 59 59 59 60 60 60 61 61 62 62 62
44 44 43 44 45 47 50 52 54 55 56 57 57 57 57 58 58 58 58 58 58 56 54 57 57 57 59 59 59 60 61 56 57 59 59 58 57 58 59 59 60 60 60
45 44 44 44 44 45 47 51 52 53 53 54 55 56 56 57 57 58 59 58 58 58 56 56 57 57 57 58 58 59 59 59 59 57 58 57 57 57 57 58 58 58 59
45 45 45 45 45 46 46 46 47 49 50 51 52 54 54 56 55 57 57 57 57 58 57 56 57 57 56 57 58 58 58 58 59 56 57 57 56 56 57 57 56 57 57
45 45 45 45 45 46 46 46 46 47 47 49 50 51 52 54 54 55 56 56 57 57 58 57 56 58 58 56 56 56 57 57 55 54 55 56 56 56 56 56 56 55 55
46 45 45 46 46 47 47 48 48 48 48 48 50 51 52 52 53 54 55 55 56 56 57 57 56 57 57 53 55 54 52 53 54 52 53 53 54 54 55 55 55 53 52
47 47 48 48 47 48 48 47 48 48 48 49 49 50 51 51 51 53 54 54 54 55 55 55 55 54 53 50 51 51 51 51 50 49 50 50 50 51 51 52 51 51 51
46 46 45 46 45 46 46 46 47 47 47 48 48 48 50 50 51 51 52 50 51 54 55 54 54 53 52 51 48 49 48 47 46 47 47 48 48 48 49 49 50 51 51
44 44 44 44 44 45 45 46 47 47 48 49 49 49 49 49 49 48 48 46 46 46 46 50 49 46 45 44 45 44 44 44 45 45 44 43 44 45 47 47 47 48 48
42 42 42 43 44 45 45 46 46 46 45 45 45 46 46 46 48 47 46 43 42 43 43 43 43 42 42 42 43 43 42 41 41 41 42 37 41 40 40 41 42 43 44
40 40 40 41 42 43 45 44 44 43 43 42 43 43 43 44 46 45 42 40 40 40 42 42 42 42 42 41 41 40 36 35 35 37 38 37 38 37 35 36 37 41 41
38 39 37 37 39 41 44 44 42 41 40 40 40 41 42 42 43 43 41 40 38 38 38 37 36 36 36 37 38 36 36 33 33 34 36 34 34 35 34 34 35 38 37